Waarnemingen

Advertentie
Mijn weer
Schaffen, België (6465): temperatuur & dauwpunt: 19.02.2018 14:00:00 - 25.02.2018 14:00:00 (CET)Schaffen, België (6465): windsnelheid & windstoten: 19.02.2018 14:00:00 - 25.02.2018 14:00:00 (CET)Schaffen, België (6465): windrichting: 19.02.2018 14:00:00 - 25.02.2018 14:00:00 (CET)Schaffen, België (6465): luchtdruk: 19.02.2018 14:00:00 - 25.02.2018 14:00:00 (CET)Schaffen, België (6465): zicht: 19.02.2018 14:00:00 - 25.02.2018 14:00:00 (CET)
Datum & Tijd tt [°C] td [°C] ff [km/u] ff [kn] fx [km/u] fx [kn] dd ppp [hPa] vv [km]
25.02.2018 14:00:00 0,1 -14,4 18 10 36 19 NO 1028,7 20
25.02.2018 13:00:00 -0,3 -15,3 18 10 - - ONO 1029,0 20
25.02.2018 12:00:00 -0,7 -15,5 18 10 36 19 O 1029,5 20
25.02.2018 11:00:00 -1,6 -14,5 18 10 40 21 O 1029,7 20
25.02.2018 10:00:00 -2,8 -13,5 22 12 - - ONO 1029,7 20
25.02.2018 09:00:00 -3,7 -12,5 18 10 36 19 ONO 1029,0 20
25.02.2018 08:00:00 -4,3 -12,2 18 10 32 18 O 1028,5 20
25.02.2018 07:00:00 -4,2 -11,8 14 8 - - ONO 1028,4 20
25.02.2018 06:00:00 -3,6 -11,8 18 10 32 18 ONO 1027,7 20
25.02.2018 05:00:00 -3,3 -11,5 14 8 29 16 ONO 1027,2 20
25.02.2018 04:00:00 -3,2 -11,0 14 8 - - ONO 1027,0 20
25.02.2018 03:00:00 -2,7 -10,7 14 8 25 14 ONO 1026,9 20
25.02.2018 02:00:00 -2,4 -10,3 14 8 29 16 ONO 1026,7 20
25.02.2018 01:00:00 -2,0 -10,2 11 6 - - ONO 1026,7 20
25.02.2018 00:00:00 -1,2 -10,3 18 10 32 18 ONO 1026,5 20
24.02.2018 23:00:00 -0,9 -10,0 14 8 32 18 ONO 1026,2 20
24.02.2018 22:00:00 -0,4 -9,0 14 8 - - ONO 1025,7 20
24.02.2018 21:00:00 -0,2 -8,2 18 10 40 21 ONO 1025,5 20
24.02.2018 20:00:00 0,2 -7,2 22 12 40 21 ONO 1025,0 20
24.02.2018 19:00:00 0,8 -7,6 25 14 - - ONO 1024,5 20
24.02.2018 18:00:00 1,6 -7,0 22 12 43 23 ONO 1023,7 20
24.02.2018 17:00:00 2,9 -7,4 25 14 47 25 ONO 1023,3 20
24.02.2018 16:00:00 4,0 -8,7 22 12 - - ONO 1023,2 20
24.02.2018 15:00:00 4,5 -10,1 25 14 47 25 ONO 1023,0 20
24.02.2018 14:00:00 4,5 -10,8 25 14 40 21 ONO 1023,0 18
24.02.2018 13:00:00 3,7 -11,6 22 12 - - O 1023,2 20
24.02.2018 12:00:00 2,1 -12,6 22 12 43 23 ONO 1023,7 20
24.02.2018 11:00:00 1,1 -13,2 22 12 40 21 O 1023,7 19
24.02.2018 10:00:00 -0,6 -13,3 18 10 - - O 1023,5 18
24.02.2018 09:00:00 -2,4 -11,9 14 8 25 14 O 1023,2 20
24.02.2018 08:00:00 -3,8 -11,6 14 8 25 14 ONO 1023,0 17
24.02.2018 07:00:00 -4,1 -11,2 14 8 - - ONO 1022,6 16
24.02.2018 06:00:00 -3,9 -11,3 11 6 25 14 ONO 1022,2 19
24.02.2018 05:00:00 -3,6 -11,0 11 6 22 12 ONO 1022,1 19
24.02.2018 04:00:00 -3,1 -10,5 14 8 - - ONO 1021,7 20
24.02.2018 03:00:00 -2,8 -9,8 14 8 22 12 NO 1021,7 20
24.02.2018 02:00:00 -2,4 -9,2 14 8 22 12 ONO 1021,5 20
24.02.2018 01:00:00 -2,1 -8,2 14 8 - - NO 1021,3 18
24.02.2018 00:00:00 -1,6 -7,8 14 8 25 14 NO 1021,2 19
23.02.2018 23:00:00 -1,2 -8,5 11 6 22 12 ONO 1020,7 20
23.02.2018 22:00:00 -0,5 -8,8 11 6 - - ONO 1021,0 20
23.02.2018 21:00:00 -0,2 -9,0 14 8 25 14 NO 1020,7 20
23.02.2018 20:00:00 0,5 -9,3 14 8 29 16 NO 1020,7 20
23.02.2018 19:00:00 1,2 -10,0 14 8 - - ONO 1020,6 20
23.02.2018 18:00:00 1,8 -10,2 22 12 32 18 ONO 1020,3 20
23.02.2018 17:00:00 2,6 -9,8 18 10 40 21 ONO 1020,2 20
23.02.2018 16:00:00 2,9 -9,3 18 10 - - ONO 1020,2 20
23.02.2018 15:00:00 2,6 -9,7 22 12 40 21 ONO 1020,7 20
23.02.2018 14:00:00 2,3 -9,3 18 10 36 19 ONO 1021,2 20
23.02.2018 13:00:00 2,1 -8,2 22 12 - - ONO 1021,6 20
23.02.2018 12:00:00 1,3 -8,2 22 12 36 19 ONO 1022,0 15
23.02.2018 11:00:00 0,6 -6,5 18 10 32 18 ONO 1022,2 10
23.02.2018 10:00:00 -0,4 -4,8 14 8 - - ONO 1022,5 10
23.02.2018 09:00:00 -1,6 -4,9 11 6 22 12 ONO 1022,5 10
23.02.2018 08:00:00 -2,6 -5,3 11 6 18 10 NO 1022,5 8
23.02.2018 07:00:00 -2,6 -5,1 11 6 - - ONO 1022,2 12
23.02.2018 06:00:00 -2,6 -5,2 11 6 22 12 NO 1022,2 14
23.02.2018 05:00:00 -2,7 -5,1 14 8 22 12 NO 1022,2 8
23.02.2018 04:00:00 -2,7 -5,7 11 6 - - NO 1022,3 9
23.02.2018 03:00:00 -3,0 -6,7 11 6 18 10 NO 1022,6 12
23.02.2018 02:00:00 -1,5 -7,4 11 6 25 14 NO 1022,7 19
23.02.2018 01:00:00 -0,7 -7,1 14 8 - - ONO 1022,8 20
23.02.2018 00:00:00 -1,1 -6,6 11 6 25 14 NO 1023,0 16
22.02.2018 23:00:00 -0,3 -6,3 11 6 29 16 ONO 1023,1 16
22.02.2018 22:00:00 0,2 -6,1 18 10 - - ONO 1022,8 16
22.02.2018 21:00:00 0,6 -6,1 14 8 29 16 NO 1022,7 17
22.02.2018 20:00:00 1,4 -6,4 18 10 29 16 NO 1022,7 20
22.02.2018 19:00:00 1,6 -6,4 14 8 - - NO 1022,2 20
22.02.2018 18:00:00 2,7 -6,8 18 10 40 21 NO 1021,8 20
22.02.2018 17:00:00 4,0 -7,0 22 12 40 21 ONO 1021,7 20
22.02.2018 16:00:00 4,0 -7,1 22 12 - - ONO 1021,8 20
22.02.2018 15:00:00 4,0 -6,6 25 14 40 21 ONO 1022,6 20
22.02.2018 14:00:00 4,0 -7,5 22 12 40 21 ONO 1023,2 20
22.02.2018 13:00:00 3,3 -6,7 18 10 - - ONO 1023,7 20
22.02.2018 12:00:00 2,9 -5,1 18 10 32 18 ONO 1024,0 20
22.02.2018 11:00:00 1,8 -4,7 14 8 29 16 ONO 1024,2 12
22.02.2018 10:00:00 0,0 -4,7 14 8 - - ONO 1024,4 12
22.02.2018 09:00:00 -1,3 -5,2 11 6 25 14 ONO 1024,4 10
22.02.2018 08:00:00 -2,2 -5,5 11 6 22 12 NO 1024,2 8
22.02.2018 07:00:00 -2,2 -5,4 11 6 - - NO 1023,8 8
22.02.2018 06:00:00 -2,3 -5,3 14 8 22 12 NO 1023,7 9
22.02.2018 05:00:00 -2,5 -5,2 11 6 22 12 NO 1023,5 6
22.02.2018 04:00:00 -2,2 -5,0 11 6 - - NO 1023,6 7
22.02.2018 03:00:00 -2,0 -5,0 11 6 22 12 NO 1023,8 7
22.02.2018 02:00:00 -1,5 -4,7 14 8 25 14 NO 1024,0 7
22.02.2018 01:00:00 -1,0 -4,7 13 7 - - NO 1024,4 8
22.02.2018 00:00:00 -1,0 -4,7 11 6 22 12 NO 1024,5 7
21.02.2018 23:00:00 -0,6 -4,7 14 8 25 14 NO 1024,7 7
21.02.2018 22:00:00 -0,7 -4,7 14 8 - - NNO 1024,9 7
21.02.2018 21:00:00 -1,0 -4,9 14 8 18 10 NNO 1024,7 7
21.02.2018 20:00:00 -0,4 -5,2 11 6 14 8 NNO 1024,7 7
21.02.2018 19:00:00 0,5 -4,8 11 6 - - NNO 1024,7 8
21.02.2018 18:00:00 2,0 -4,5 14 8 29 16 NNO 1024,2 8
21.02.2018 17:00:00 3,9 -5,0 22 12 29 16 NNO 1024,0 10
21.02.2018 16:00:00 4,4 -4,6 18 10 - - NNO 1024,2 12
21.02.2018 15:00:00 4,5 -4,4 18 10 32 18 NNO 1024,5 12
21.02.2018 14:00:00 4,2 -4,2 22 12 29 16 NNO 1025,4 8
21.02.2018 13:00:00 3,4 -5,0 18 10 - - NO 1025,9 8
21.02.2018 12:00:00 3,3 -3,3 14 8 22 12 NNO 1026,2 6
21.02.2018 11:00:00 1,4 -3,3 11 6 14 8 NO 1026,0 6
21.02.2018 10:00:00 -0,2 -3,5 7 4 - - NO 1026,0 5
21.02.2018 09:00:00 -2,3 -4,0 7 4 14 8 NNO 1026,0 4,0
21.02.2018 08:00:00 -2,7 -4,7 11 6 14 8 NNO 1025,7 4,0
21.02.2018 07:00:00 -2,9 -5,0 11 6 - - NNO 1025,4 4,0
21.02.2018 06:00:00 -2,4 -5,0 7 4 18 10 NO 1025,0 7
21.02.2018 05:00:00 -1,8 -4,6 7 4 18 10 NO 1024,7 3,9
21.02.2018 04:00:00 -2,2 -4,2 11 6 - - NNO 1024,5 3,2
21.02.2018 03:00:00 -1,7 -3,8 14 8 18 10 N 1024,4 2,9
21.02.2018 02:00:00 -1,5 -3,8 7 4 18 10 NO 1024,0 3,6
21.02.2018 01:00:00 -0,9 -3,5 14 8 - - N 1024,0 4,3
21.02.2018 00:00:00 -0,7 -3,4 11 6 18 10 NNO 1023,3 3,9
20.02.2018 23:00:00 0,6 -2,9 11 6 18 10 NO 1022,6 6
20.02.2018 22:00:00 1,0 -2,4 11 6 - - NO 1022,0 6
20.02.2018 21:00:00 0,7 -2,7 11 6 14 8 NNO 1021,5 6
20.02.2018 20:00:00 1,6 -2,5 11 6 14 8 NNO 1021,0 7
20.02.2018 19:00:00 2,3 -2,5 7 4 - - NNO 1020,2 7
20.02.2018 18:00:00 3,1 -1,8 11 6 14 8 NNO 1019,7 8
20.02.2018 17:00:00 4,3 -2,2 11 6 14 8 N 1019,2 8
20.02.2018 16:00:00 4,5 -2,9 11 6 - - NNO 1018,7 8
20.02.2018 15:00:00 4,5 -2,3 7 4 14 8 NNO 1018,7 8
20.02.2018 14:00:00 4,8 -1,0 4 2 11 6 N 1019,1 8
20.02.2018 13:00:00 3,6 -0,4 4 2 - - N 1019,2 8
20.02.2018 12:00:00 2,6 -0,8 4 2 7 4 N 1019,2 6
20.02.2018 11:00:00 1,4 -1,0 4 2 7 4 N 1019,3 5
20.02.2018 10:00:00 0,0 -1,3 4 2 - - N 1019,2 4,0
20.02.2018 09:00:00 -1,1 -2,3 7 4 7 4 NW 1019,2 5
20.02.2018 08:00:00 -1,5 -2,3 7 4 7 4 NNO 1018,5 4,0
20.02.2018 07:00:00 -1,0 -2,4 4 2 - - N 1018,2 4,8
20.02.2018 06:00:00 -1,2 -2,2 4 2 7 4 N 1018,3 3,5
20.02.2018 05:00:00 -1,4 -2,0 7 4 7 4 NO 1018,2 2,8
20.02.2018 04:00:00 0,1 -1,3 4 2 - - N 1018,3 5
20.02.2018 03:00:00 0,0 -1,1 4 2 4 2 N 1018,0 4,4
20.02.2018 02:00:00 0,6 -1,2 4 2 4 2 N 1017,8 4,9
20.02.2018 01:00:00 1,5 -0,9 4 2 - - N 1018,1 7
20.02.2018 00:00:00 1,8 -0,7 4 2 7 4 N 1017,7 7
19.02.2018 23:00:00 2,2 -0,7 4 2 4 2 N 1017,7 6
19.02.2018 22:00:00 2,5 -0,5 4 2 - - N 1018,0 8
19.02.2018 21:00:00 2,7 -0,3 4 2 7 4 N 1018,2 8
19.02.2018 20:00:00 2,7 -0,4 4 2 7 4 - 1018,1 7
19.02.2018 19:00:00 3,0 -0,2 4 2 - - N 1018,2 9
19.02.2018 18:00:00 3,2 -0,4 4 2 11 6 N 1018,1 10
19.02.2018 17:00:00 3,5 -0,7 7 4 14 8 Z 1018,2 10
19.02.2018 16:00:00 3,5 -0,7 7 4 - - Z 1018,7 10
19.02.2018 15:00:00 3,2 -0,8 7 4 14 8 Z 1019,1 12
19.02.2018 14:00:00 2,6 -1,3 11 6 14 8 Z 1019,5 10

tt = temperatuur
td = dauwpunt
ff = windsnelheid
fx = windstoten
dd = windrichting
ppp = luchtdruk
vv = zicht

Weerstations in de omgeving